Weather WX

World > North America > United States > Mississippi

Mcraney, Mississippi Regional Weather

Lat: 31.61N, Lon: 89.72W
Wx Zone: MSZ065
Warning FLW WEATHER ALERT - (More Info. Click Here) Warning
Feedback

Mcraney, MS Regional Weather

Expires:201906242200;;019966
ASUS44 KJAN 242110
RWRMS 

MISSISSIPPI HOURLY WEATHER ROUNDUP
NATIONAL WEATHER SERVICE JACKSON MS
400 PM CDT MON JUN 24 2019

NOTE: "FAIR: INDICATES FEW OR NO CLOUDS BELOW 12,000 FEET WITH NO
SIGNIFICANT WEATHER AND/OR OBSTRUCTIONS TO VISIBILITY.


MSZ059>079-242200-
SOUTH MISSISSIPPI
  
CITY           SKY/WX    TMP DP  RH WIND       PRES   REMARKS
BROOKHAVEN     FAIR      82  70  65 E5        29.98F                  
HATTIESBURG    PTSUNNY   80  70  71 S8        29.96F                  
LAUREL         CLEAR     83  72  69 W7        29.96S                  
MCCOMB         FAIR      79  67  66 S10       29.95F                  
NATCHEZ        FAIR      83  69  62 W9        29.96F                  
PINE BELT      FAIR      80  71  74 S7        29.98R                  
$$


SKY/WX - Weather  TMP - Temperature  DP - Dew Point  RH - Relative Humidity
WIND - Wind Direction/Speed PRES - Barometric Pressure VSB - Visibility
WCI - Wind Chill Index E13G22 Wind - East Wind 13 mph/Gusts of 22 mph